Home   Weather   Salta   Past weeks

Flag for Argentina Past Weather in Salta, Salta, Argentina — Yesterday and Last 2 Weeks

Now
66 °F

Clear.


Feels Like: 66 °F
Forecast: 62 / 83 °F
Wind: 2 mph from West

Location: Salta Aerodrome

Current Time: Feb 25, 2017 at 4:19:42 am

Latest Report: Feb 25, 2017 at 4:00 am


Visibility: 10 mi

Pressure: 30.01 "Hg (26.13 "Hg at 1184m altitude)

Humidity: 94%

Dew Point: 64 °F

Location of SaltaLocation

Past Weather in Salta — Graph

°F

Salta Temperature Yesterday

Maximum temperature yesterday: 88 °F (at 5:00 pm)
Minimum temperature yesterday: 64 °F (at 6:00 am)
Average temperature yesterday: 75 °F

High & Low Weather Summary for the Past Weeks

 TemperatureHumidityPressure
High88 °F (Feb 17, 3:00 pm)100% (Feb 11, 3:00 am)30.15 "Hg (Feb 11, 3:00 am)
Low57 °F (Feb 12, 7:00 am)32% (Feb 12, 4:00 pm)29.77 "Hg (Feb 17, 4:00 pm)
Average72 °F73%30.01 "Hg
* Reported Feb 10 3:00 am — Feb 25 3:00 am, Salta, Weather by CustomWeather, © 2017

Note: Actual official high and low records may vary slightly from our data, if they occured in-between our weather recording intervals... More about our weather records

Advertising

Salta Weather History for the Previous 24 Hours

Scroll right to see more
 ConditionsComfort  
Time TempWeatherWind HumidityBarometerVisibility
3:00 am
Sat, Feb 25
66 °FClear.2 mph94%30.04 "Hg10 mi
2:00 am68 °FPassing clouds.2 mph88%30.04 "HgN/A
1:00 am70 °FPassing clouds.No wind88%30.07 "HgN/A
12:00 am70 °FClear.5 mph88%30.07 "Hg10 mi
11:00 pm
Fri, Feb 24
72 °FClear.2 mph83%30.04 "Hg10 mi
10:00 pm73 °FPassing clouds.2 mph74%30.01 "HgN/A
9:00 pm75 °FPassing clouds.3 mph69%29.98 "HgN/A
8:00 pm77 °FPassing clouds.7 mph61%29.95 "HgN/A
7:00 pm81 °FScattered clouds.12 mph54%29.92 "HgN/A
6:00 pm82 °FScattered clouds.15 mph51%29.92 "HgN/A
5:00 pm88 °FScattered clouds.10 mph35%29.92 "HgN/A
4:00 pm86 °FScattered clouds.6 mph43%29.95 "HgN/A
3:00 pm86 °FScattered clouds.5 mph46%29.98 "HgN/A
2:00 pm86 °FPartly sunny.7 mph46%30.01 "HgN/A
1:00 pm82 °FPassing clouds.5 mph55%30.04 "HgN/A
12:00 pm79 °FPassing clouds.No wind61%30.04 "HgN/A
11:00 am75 °FPassing clouds.5 mph69%30.07 "HgN/A
10:00 am73 °FPassing clouds.No wind74%30.07 "HgN/A
9:00 am72 °FScattered clouds.2 mph78%30.07 "HgN/A
8:00 am64 °FScattered clouds.5 mph88%30.07 "HgN/A
7:00 am64 °FPassing clouds.3 mph88%30.04 "HgN/A
6:00 am64 °FClear.No wind94%30.04 "Hg10 mi
5:00 am66 °FClear.3 mph88%30.01 "Hg10 mi
4:00 am68 °FClear.3 mph83%30.04 "Hg10 mi
Weather by CustomWeather, © 2017

See weather overviewHow to use our weather pages